Location: Zagreb
(45.8000°N, 16.0000°E)
Time: 19:01:01
(UTC+02:00)

Tiros 1 despin weight - Pass Details

Date: 13 August 2022
Orbit: 591 x 638 km, 48.2° (Epoch: 06 October)

Event Time Altitude Azimuth Distance (km) Brightness Sun altitude
Rises 18:36:06 0° 286° (WNW) 2,825 ? 14.6°
Reaches altitude 10° 18:38:40 10° 274° (W) 1,918 ? 14.2°
Maximum altitude 18:42:18 25° 218° (SW) 1,186 ? 13.6°
Drops below altitude 10° 18:45:55 10° 162° (SSE) 1,911 ? 12.9°
Sets 18:48:28 0° 149° (SSE) 2,813 ? 12.5°
